Home > Weather > Babylon > Past weeks

Flag for USA Past Weather in Babylon, New York, USA — Yesterday and Last 2 Weeks

Now
68 °F

Light rain. Fog.


Feels Like: 68 °F
Forecast: 70 / 73 °F
Wind: 7 mph from South

Location: Long Island Mac Arthur Airport

Current Time: Jun 28, 2016 at 12:58:28 PM

Latest Report: Jun 28, 2016 at 11:56 AM


Visibility: 3 mi

Pressure: 29.57 "Hg

Humidity: 93%

Dew Point: 66 °F

Location of BabylonLocation

Past Weather in Babylon — Graph

°F

Babylon Temperature Yesterday

Maximum temperature yesterday: 77 °F (at 2:56 PM)
Minimum temperature yesterday: 65 °F (at 4:56 AM)
Average temperature yesterday: 71 °F

High & Low Weather Summary for the Past Weeks

 TemperatureHumidityPressure
High85 °F (Jun 22, 1:56 PM)100% (Jun 24, 1:03 AM)30.32 "Hg (Jun 24, 1:03 AM)
Low54 °F (Jun 18, 5:56 AM)26% (Jun 22, 4:56 PM)29.72 "Hg (Jun 16, 6:56 PM)
Average70 °F66%30.00 "Hg
* Reported Jun 13 10:56 AM — Jun 28 10:56 AM, Babylon, Weather by CustomWeather, © 2016

Note: Actual official high and low records may vary slightly from our data, if they occured in-between our weather recording intervals... More about our weather records

Advertising

Babylon Weather History for the Previous 24 Hours

Scroll right to see more
 ConditionsComfort  
Time TempWeatherWind HumidityBarometerVisibility
10:56 AM
Tue, Jun 28
68 °FLight rain. Mostly cloudy.7 mph87%29.99 "Hg6 mi
8:56 AM68 °FMostly cloudy.9 mph84%29.99 "Hg10 mi
7:56 AM68 °FOvercast.8 mph87%30.00 "Hg10 mi
6:56 AM69 °FCloudy.9 mph93%29.99 "Hg10 mi
5:56 AM69 °FOvercast.8 mph96%29.99 "Hg10 mi
4:56 AM69 °FLight rain. Fog.6 mph96%29.98 "Hg6 mi
3:56 AM69 °FOvercast.7 mph93%29.98 "Hg10 mi
2:56 AM70 °FLight rain. Mostly cloudy.8 mph90%29.99 "Hg10 mi
1:56 AM70 °FMostly cloudy.10 mph90%30.00 "Hg10 mi
1:03 AM70 °FLight rain. Mostly cloudy.9 mph90%30.01 "Hg10 mi
12:56 AM70 °FLight rain. Overcast.9 mph90%30.01 "Hg10 mi
11:56 PM
Mon, Jun 27
71 °FLight rain. Mostly cloudy.8 mph87%30.02 "Hg10 mi
10:56 PM71 °FLight rain. Mostly cloudy.14 mph81%30.02 "Hg10 mi
9:56 PM72 °FMostly cloudy.15 mph78%30.03 "Hg10 mi
8:56 PM72 °FMostly cloudy.12 mph78%30.02 "Hg10 mi
7:56 PM72 °FMostly cloudy.13 mph78%30.02 "Hg10 mi
6:56 PM73 °FMostly cloudy.14 mph76%30.02 "Hg10 mi
5:56 PM73 °FPartly sunny.14 mph79%30.02 "Hg10 mi
4:56 PM74 °FBroken clouds.15 mph74%30.03 "Hg10 mi
3:56 PM75 °FBroken clouds.16 mph74%30.03 "Hg10 mi
2:56 PM77 °FBroken clouds.18 mph71%30.03 "Hg10 mi
1:56 PM75 °FPartly sunny.16 mph76%30.06 "Hg10 mi
12:56 PM75 °FPartly sunny.14 mph69%30.08 "Hg10 mi
Weather by CustomWeather, © 2016

See weather overviewHow to use our weather pages